Terug naar catalogus

STARLINK-32725

ActiefCommunicatieVLEO
NORAD 62505·PAYLOAD·🇺🇸 United States

Gelanceerd Jan 6, 2025 vanaf Cape Canaveral Space Force Station

Loading…

Volgende Passages (komende 24 uur)

TLE

VersSource: CelesTrak SupGP

Epoch: Sep 15, 2026, 03:02 UTC

1 62505C 25003U   26258.12687500  .00015973  00000+0  57838-3 0  2586
2 62505  43.0021 298.7039 0001365 261.1885 264.6846 15.27579285    12

Volg STARLINK-32725 in realtime met AllMySat

Download on the App Store